[[{"header":{"parameterUnit":"m.s-1","parameterCategory":1,"la1":30.2991,"la2":30.254,"lo1":-89.0895,"lo2":-89.0444,"dy":0.0017,"dx":0.0017,"nx":28,"ny":28,"refTime":"2024-09-03T03:00:00:Z","depth":0,"parameterNumber":2,"parameterNumberName":"U-component_of_WINDS"},"data":[0,0,0,0,0,0,0,0,0,0,0,0,0,0,0,0,0,0,0,0,0,0,0,0,0,0,0,0,0,0,0,0,0,0,0,0,0,0,0,0,0,0,0,0,0,0,0,0,0,0,0,0,0,0,0,0,0,0,-5.8502,-5.8503,0,-5.8565,-5.8566,-5.8567,-5.8402,-5.8397,-5.8392,-5.8387,-5.8452,-5.8459,-5.8465,0,0,0,0,0,0,0,0,0,0,0,0,0,-5.8238,-5.8244,-5.8502,-5.8503,-5.8503,-5.8565,-5.8566,-5.8567,-5.8403,-5.8397,-5.8391,-5.8385,-5.845,-5.8458,-5.8466,0,0,0,0,0,0,0,0,0,0,0,0,0,-5.8332,-5.8245,-5.8502,-5.8429,-5.8423,-5.8565,-5.8566,-5.8567,-5.8404,-5.8397,-5.8389,-5.8382,-5.8448,-5.8457,-5.8467,-5.8682,0,0,-5.8497,-5.8501,0,0,0,0,0,0,0,0,-5.8327,-5.8342,-5.8439,-5.8434,-5.8428,-5.8468,-5.8496,-5.8605,-5.8406,-5.8412,-5.8387,-5.8378,-5.8464,-5.8472,-5.85,-5.8685,-5.8687,-5.8498,-5.8503,-5.8508,-5.851,0,0,0,0,0,0,0,-5.8321,-5.8338,-5.8527,-5.8441,-5.8434,-5.8393,-5.8398,-5.8516,-5.848,-5.8411,-5.8399,-5.8408,-5.8459,-5.8491,-5.8501,-5.8688,-5.8497,-5.8506,-5.8512,-5.8516,-5.9049,-5.9057,0,0,0,0,0,0,-5.8324,-5.8334,-5.8525,-5.8529,-5.8358,-5.8404,-5.8409,-5.8463,-5.8478,-5.8473,-5.8415,-5.8401,-5.8479,-5.849,-5.8503,-5.8752,-5.8508,-5.8517,-5.8522,-5.9041,-5.9051,-5.906,0,0,0,0,0,0,-5.8319,-5.8342,-5.8522,-5.8428,-5.8448,-5.8417,-5.8478,-5.8468,-5.85,-5.8482,-5.8474,-5.8455,-5.8473,-5.8489,-5.8637,-5.8752,-5.8521,-5.853,-5.9031,-5.9044,-5.9055,-5.9256,0,0,0,0,0,0,-5.8312,-5.8341,-5.8423,-5.8431,-5.8454,-5.8657,-5.8485,-5.8475,-5.8517,-5.8499,-5.8517,-5.8513,-5.8468,-5.8624,-5.8647,-5.8762,-5.8538,-5.902,-5.9037,-5.9051,-5.9239,-5.9274,-5.9303,0,0,0,0,0,-5.8303,-5.8478,-5.8428,-5.8452,-5.8555,-5.8664,-5.8677,-5.8622,-5.8528,-5.8609,-5.8597,-5.8512,-5.8737,-5.864,-5.8666,-5.8785,-5.9013,-5.9032,-5.905,-5.9224,-5.9267,-5.9303,0,0,0,0,0,0,-5.8484,-5.8477,-5.8422,-5.8605,-5.8636,-5.8636,-5.8737,-5.8669,-5.8728,-5.8708,-5.8638,-5.8643,-5.8805,-5.881,-5.8703,-5.8992,-5.8859,-5.8883,-5.8982,-5.9023,-5.9054,-5.9048,-5.8546,0,0,0,0,0,-5.8545,-5.8634,-5.8624,-5.8786,-5.8805,-5.8769,-5.8814,-5.8769,-5.8799,-5.8811,-5.881,-5.8842,-5.8919,-5.8971,-5.9042,-5.924,-5.924,-5.9334,-5.9366,-5.9393,-5.9414,-5.9516,-5.9557,-5.9121,-5.9121,-5.9121,0,0,-5.8672,-5.868,-5.874,-5.8823,-5.8841,-5.8934,-5.8781,-5.8886,-5.8954,-5.8827,-5.8966,-5.8967,-5.8998,-5.9172,-5.9248,-5.9181,-5.9535,-5.9416,-5.9438,-5.9444,-5.9539,-5.9581,-5.9617,-5.9134,-5.9131,-5.9129,0,0,-5.895,-5.8967,-5.9102,-5.9124,-5.9154,-5.9129,-5.9162,-5.9173,-5.9168,-5.9307,-5.9212,-5.9293,-5.9428,-5.9453,-5.9484,-5.9772,-5.9695,-5.9797,-5.9965,-6.0065,-6.0099,-6.0129,-6.0229,-6.0266,-5.9819,-5.9819,-5.982,0,-5.9104,-5.9241,-5.918,-5.9292,-5.933,-5.9219,-5.9354,-5.9379,-5.9432,-5.946,-5.9384,-5.955,-5.9564,-5.974,-5.981,-5.984,-5.9874,-5.9793,-6.0099,-6.0129,-6.0156,-6.025,-6.0288,-5.9831,-5.983,-5.9829,-5.9827,0,-5.9427,-5.9524,-5.9629,-5.9682,-5.9732,-5.9856,-5.9813,-5.9871,-5.9822,-5.9805,-5.9947,-5.9959,-6.0029,-6.0068,-6.0022,-6.0238,-6.0195,-6.0111,-5.9975,-6.021,-6.0298,-6.0334,-5.9848,-5.9844,-5.984,-5.9837,0,0,-5.982,-5.9837,-5.9876,-5.9898,-5.9923,-5.9996,-6.0115,-6.0182,-6.0232,-6.0273,-6.0368,-6.0486,-6.0407,-6.0442,-6.0398,-6.0487,-6.071,-6.0391,-6.039,-6.0447,-6.0946,-6.1007,-6.105,-6.0661,-6.0668,-6.0673,-6.0942,0,-6.0092,-6.0293,-6.0242,-6.0442,-6.0529,-6.0425,-6.0528,-6.0554,-6.0542,-6.0613,-6.0599,-6.0682,-6.0574,-6.0594,-6.0678,-6.0666,-6.0809,-6.0646,-6.0747,-6.0752,-6.074,-6.1096,-6.1161,-6.1414,-6.0976,-6.0982,-6.0986,0,-6.0436,-6.0488,-6.0697,-6.0707,-6.0741,-6.0834,-6.0891,-6.0962,-6.0989,-6.0974,-6.1013,-6.0951,-6.1066,-6.0932,-6.1089,-6.0979,-6.1018,-6.1018,-6.1027,-6.1031,-6.0881,-6.1107,-6.1494,-6.1531,-6.104,-6.1036,-6.1032,0,-6.0697,-6.082,-6.096,-6.0982,-6.0998,-6.1065,-6.1075,-6.1095,-6.1139,-6.1189,-6.1216,-6.128,-6.1315,-6.1365,-6.1321,-6.1228,-6.1484,-6.1347,-6.1473,-6.1474,-6.1529,-6.1525,-6.1924,-6.156,-6.156,-6.1559,-6.1558,0,-6.1004,-6.1135,-6.1077,-6.1163,-6.1307,-6.1247,-6.139,-6.1388,-6.1407,-6.1489,-6.1405,-6.1485,-6.1423,-6.1498,-6.1465,-6.1598,-6.1615,-6.1605,-6.1594,-6.161,-6.1611,-6.1632,-6.1612,-6.1569,-6.1567,-6.1565,-6.1563,0,-6.1318,-6.1286,-6.1431,-6.1434,-6.1438,-6.1543,-6.1545,-6.1624,-6.1605,-6.1711,-6.1733,-6.1704,-6.1787,-6.1749,-6.1836,-6.1814,-6.1984,-6.1952,-6.1975,-6.1965,-6.2092,-6.2079,-6.2515,-6.2568,-6.2174,-6.2178,-6.2181,0,-6.1515,-6.1613,-6.1627,-6.1676,-6.1691,-6.1772,-6.1816,-6.1761,-6.181,-6.1848,-6.1923,-6.1998,-6.2055,-6.2193,-6.2179,-6.2245,-6.2211,-6.2359,-6.222,-6.2233,-6.2209,-6.2202,-6.221,-6.2386,-6.2391,-6.2395,-6.2398,0,-6.1866,-6.1845,-6.1911,-6.1972,-6.2027,-6.2072,-6.211,-6.2156,-6.2102,-6.2161,-6.2244,-6.2289,-6.2377,-6.2453,-6.251,-6.2519,-6.245,-6.2442,-6.2474,-6.249,-6.2498,-6.2492,-6.2047,-6.2431,-6.2428,-6.2426,-6.2424,-6.2422,-6.2125,-6.2206,-6.2228,-6.2304,-6.2327,-6.2365,-6.2438,-6.2429,-6.2498,-6.2565,-6.2529,-6.2626,-6.2649,-6.2719,-6.2738,-6.2812,-6.2754,-6.2801,-6.2812,-6.2824,-6.2839,-6.249,-6.2823,-6.2822,-6.2821,-6.2821,-6.282,0,-6.2468,-6.2477,-6.2548,-6.2604,-6.2664,-6.2594,-6.2632,-6.2687,-6.2773,-6.2801,-6.2859,-6.2954,-6.3027,-6.3019,-6.3085,-6.3146,-6.3116,-6.3165,-6.3158,-6.3161,-6.289,-6.2854,-6.3189,-6.3189,-6.3188,-6.3188,-6.3188,-6.3188,-6.2654,-6.2787,-6.2769,-6.2912,-6.2919,-6.3013,-6.3041,-6.3074,-6.3096,-6.3206,-6.3266,-6.3261,-6.3274,-6.3341,-6.3404,-6.3399,-6.3426,-6.3487,-6.3471,-6.3217,-6.318,-6.3145,-6.3111,-6.3495,-6.3495,-6.3735,-6.3738,-6.3739]},{"header":{"parameterUnit":"m.s-1","parameterCategory":1,"la1":30.2991,"la2":30.254,"lo1":-89.0895,"lo2":-89.0444,"dy":0.0017,"dx":0.0017,"nx":28,"ny":28,"refTime":"2024-09-03T03:00:00:Z","depth":0,"parameterNumber":3,"parameterNumberName":"V-component_of_WINDS"},"data":[0,0,0,0,0,0,0,0,0,0,0,0,0,0,0,0,0,0,0,0,0,0,0,0,0,0,0,0,0,0,0,0,0,0,0,0,0,0,0,0,0,0,0,0,0,0,0,0,0,0,0,0,0,0,0,0,0,0,-0.135,-0.1349,0,-0.1325,-0.1325,-0.1324,-0.133,-0.1331,-0.1331,-0.1331,-0.1307,-0.1306,-0.1305,0,0,0,0,0,0,0,0,0,0,0,0,0,-0.1401,-0.14,-0.135,-0.1349,-0.1349,-0.1325,-0.1325,-0.1324,-0.133,-0.1331,-0.1331,-0.1332,-0.1308,-0.1306,-0.1305,0,0,0,0,0,0,0,0,0,0,0,0,0,-0.1378,-0.14,-0.135,-0.1349,-0.1349,-0.1325,-0.1325,-0.1324,-0.133,-0.1331,-0.1331,-0.1332,-0.1308,-0.1306,-0.1305,-0.1281,0,0,-0.13,-0.1299,0,0,0,0,0,0,0,0,-0.1379,-0.1376,-0.1349,-0.1349,-0.1349,-0.1331,-0.1334,-0.131,-0.133,-0.1337,-0.1331,-0.1332,-0.1315,-0.1313,-0.1306,-0.128,-0.1279,-0.13,-0.1299,-0.1298,-0.1298,0,0,0,0,0,0,0,-0.1381,-0.1377,-0.134,-0.1349,-0.1349,-0.135,-0.1347,-0.1329,-0.1322,-0.1336,-0.1337,-0.1334,-0.1315,-0.1308,-0.1306,-0.1278,-0.13,-0.1298,-0.1297,-0.1297,-0.1228,-0.1227,0,0,0,0,0,0,-0.1383,-0.1378,-0.1341,-0.1339,-0.1366,-0.1348,-0.1345,-0.1336,-0.1323,-0.1321,-0.1333,-0.1334,-0.131,-0.1308,-0.1305,-0.1275,-0.1298,-0.1296,-0.1296,-0.1229,-0.1228,-0.1227,0,0,0,0,0,0,-0.1384,-0.1379,-0.1342,-0.1359,-0.1354,-0.1347,-0.1336,-0.1335,-0.1329,-0.132,-0.1319,-0.1328,-0.1311,-0.1307,-0.1286,-0.1274,-0.1296,-0.1294,-0.123,-0.1229,-0.1228,-0.1214,0,0,0,0,0,0,-0.1385,-0.138,-0.1371,-0.1359,-0.1353,-0.1324,-0.1336,-0.1334,-0.1326,-0.1327,-0.1315,-0.1313,-0.1311,-0.1289,-0.1285,-0.1272,-0.1293,-0.1231,-0.1229,-0.1228,-0.1216,-0.1213,-0.121,0,0,0,0,0,-0.1387,-0.1369,-0.137,-0.1366,-0.1342,-0.1323,-0.132,-0.1317,-0.1325,-0.1315,-0.1309,-0.1314,-0.1276,-0.1286,-0.1282,-0.1269,-0.1232,-0.123,-0.1228,-0.1217,-0.1213,-0.121,0,0,0,0,0,0,-0.1381,-0.1367,-0.1369,-0.1346,-0.1335,-0.1324,-0.1312,-0.1314,-0.1301,-0.1303,-0.1301,-0.1298,-0.1276,-0.127,-0.1282,-0.1244,-0.1255,-0.1252,-0.1248,-0.1244,-0.1242,-0.1243,-0.1292,0,0,0,0,0,-0.1377,-0.1362,-0.1351,-0.1332,-0.1327,-0.132,-0.1312,-0.1311,-0.13,-0.1295,-0.1288,-0.1277,-0.1263,-0.1253,-0.124,-0.1215,-0.1212,-0.1204,-0.1201,-0.1198,-0.1196,-0.118,-0.1176,-0.1221,-0.1221,-0.1221,0,0,-0.1368,-0.1359,-0.135,-0.1331,-0.1322,-0.1307,-0.1316,-0.13,-0.1289,-0.1293,-0.1272,-0.1266,-0.1254,-0.123,-0.122,-0.1225,-0.1183,-0.1196,-0.1194,-0.1193,-0.1178,-0.1174,-0.117,-0.122,-0.122,-0.122,0,0,-0.1345,-0.1337,-0.1319,-0.131,-0.1297,-0.1292,-0.1288,-0.1275,-0.1271,-0.125,-0.1252,-0.1238,-0.1214,-0.1204,-0.1196,-0.1167,-0.1169,-0.1162,-0.1147,-0.1132,-0.1129,-0.1126,-0.1114,-0.111,-0.116,-0.116,-0.116,0,-0.1336,-0.1313,-0.131,-0.1293,-0.1283,-0.1285,-0.1267,-0.1258,-0.1242,-0.1235,-0.1241,-0.1209,-0.1201,-0.1174,-0.1167,-0.1161,-0.1155,-0.1164,-0.113,-0.1126,-0.1123,-0.1112,-0.1108,-0.1159,-0.1159,-0.1159,-0.1159,0,-0.1302,-0.1286,-0.1273,-0.1255,-0.1244,-0.1227,-0.1221,-0.121,-0.1209,-0.1204,-0.1181,-0.1171,-0.1155,-0.1149,-0.1148,-0.1121,-0.1125,-0.113,-0.1141,-0.1118,-0.1107,-0.1103,-0.1158,-0.1158,-0.1158,-0.1158,0,0,-0.1275,-0.1254,-0.125,-0.1241,-0.1225,-0.1212,-0.1194,-0.1177,-0.1167,-0.1155,-0.1139,-0.1117,-0.1121,-0.1112,-0.1111,-0.1098,-0.1073,-0.1105,-0.1104,-0.1098,-0.104,-0.1035,-0.1031,-0.1074,-0.1073,-0.1073,-0.1041,0,-0.125,-0.1217,-0.1212,-0.1183,-0.1167,-0.1168,-0.1152,-0.114,-0.1134,-0.1119,-0.1113,-0.1097,-0.1105,-0.1099,-0.1086,-0.1078,-0.1061,-0.1081,-0.1059,-0.1058,-0.1061,-0.1025,-0.1021,-0.0991,-0.1037,-0.1036,-0.1035,0,-0.1216,-0.1201,-0.117,-0.1154,-0.1147,-0.1133,-0.1115,-0.1102,-0.1088,-0.1084,-0.1073,-0.1072,-0.1052,-0.1064,-0.1036,-0.105,-0.1041,-0.1035,-0.1034,-0.1032,-0.1045,-0.1021,-0.0982,-0.0977,-0.1029,-0.103,-0.103,0,-0.1197,-0.117,-0.1147,-0.114,-0.1121,-0.1111,-0.1103,-0.1089,-0.1079,-0.1064,-0.1056,-0.104,-0.103,-0.1017,-0.1012,-0.1021,-0.0984,-0.0996,-0.0979,-0.0979,-0.0971,-0.0972,-0.0929,-0.0967,-0.0967,-0.0967,-0.0967,0,-0.1169,-0.1149,-0.1138,-0.1124,-0.1102,-0.1097,-0.1075,-0.1067,-0.1055,-0.1039,-0.1039,-0.1024,-0.1018,-0.1002,-0.0998,-0.0974,-0.0971,-0.0966,-0.0965,-0.0966,-0.0966,-0.0959,-0.0961,-0.0965,-0.0966,-0.0966,-0.0966,0,-0.1145,-0.1137,-0.1112,-0.1096,-0.1091,-0.1075,-0.1061,-0.1047,-0.1041,-0.102,-0.1015,-0.1005,-0.0986,-0.0979,-0.0956,-0.0953,-0.0925,-0.0926,-0.0929,-0.0929,-0.0913,-0.0914,-0.0864,-0.0856,-0.0899,-0.0899,-0.0899,0,-0.1127,-0.1112,-0.1093,-0.1082,-0.1073,-0.1055,-0.1044,-0.1038,-0.1026,-0.1007,-0.0995,-0.0976,-0.096,-0.0929,-0.0919,-0.0901,-0.0901,-0.0885,-0.0899,-0.0899,-0.0899,-0.09,-0.0898,-0.0882,-0.0882,-0.0881,-0.0881,0,-0.1095,-0.1091,-0.1075,-0.1056,-0.1041,-0.1027,-0.1012,-0.1003,-0.0994,-0.0981,-0.096,-0.0948,-0.0923,-0.0903,-0.0884,-0.0876,-0.0876,-0.0877,-0.0872,-0.0872,-0.0874,-0.0871,-0.0921,-0.0878,-0.0878,-0.0878,-0.0879,-0.0879,-0.1073,-0.1059,-0.1043,-0.1023,-0.1011,-0.0997,-0.0982,-0.0973,-0.0956,-0.0935,-0.0932,-0.091,-0.0894,-0.0869,-0.0859,-0.0841,-0.0846,-0.0839,-0.0837,-0.0835,-0.0833,-0.0877,-0.0838,-0.0838,-0.0838,-0.0838,-0.0838,0,-0.104,-0.1029,-0.1012,-0.099,-0.0975,-0.0976,-0.0959,-0.0946,-0.0926,-0.0911,-0.0895,-0.0871,-0.0851,-0.0839,-0.0819,-0.0807,-0.0806,-0.0802,-0.0802,-0.08,-0.0831,-0.0837,-0.0802,-0.0802,-0.0802,-0.0802,-0.0802,-0.0802,-0.1021,-0.0996,-0.099,-0.0959,-0.0948,-0.0926,-0.0916,-0.0902,-0.089,-0.0863,-0.0846,-0.0838,-0.0824,-0.0802,-0.0784,-0.0781,-0.0773,-0.0767,-0.0765,-0.0794,-0.0798,-0.0801,-0.0807,-0.0766,-0.0766,-0.0734,-0.0734,-0.0734]}]]